Time,TemperatureF,DewpointF,PressureIn,WindDirection,WindDirectionDegrees,WindSpeedMPH,WindSpeedGustMPH,Humidity,HourlyPrecipIn,Conditions,Clouds,dailyrainin,SolarRadiationWatts/m^2,SoftwareType,DateUTC
2013-12-09 00:00:00,7.4,4.1,30.13,SSE,157,0.0,0.0,86,0.00,,SCT,0.00,0.00,VWS V14.01,2013-12-09 06:00:00,
2013-12-09 00:05:00,7.4,3.8,30.13,SSE,157,0.0,0.0,85,0.00,,SCT,0.00,0.00,VWS V14.01,2013-12-09 06:05:00,
2013-12-09 00:10:00,7.4,3.8,30.13,SSE,157,0.0,0.0,85,0.00,,SCT,0.00,0.00,VWS V14.01,2013-12-09 06:10:00,
2013-12-09 00:15:00,7.4,3.8,30.12,SSE,157,0.0,0.0,85,0.00,,SCT,0.00,0.00,VWS V14.01,2013-12-09 06:15:00,
2013-12-09 00:20:00,7.4,3.8,30.12,SSE,157,0.0,0.0,85,0.00,,SCT,0.00,0.00,VWS V14.01,2013-12-09 06:20:00,
2013-12-09 00:25:00,7.4,3.8,30.12,SSE,157,0.0,0.0,85,0.00,,SCT,0.00,0.00,VWS V14.01,2013-12-09 06:25:00,
2013-12-09 00:30:00,7.4,3.8,30.12,SSE,157,0.0,0.0,85,0.00,,SCT,0.00,0.00,VWS V14.01,2013-12-09 06:30:00,
2013-12-09 00:35:00,7.4,3.8,30.11,SSE,157,0.0,0.0,85,0.00,,SCT,0.00,0.00,VWS V14.01,2013-12-09 06:35:00,
2013-12-09 00:40:00,7.4,3.8,30.11,SSE,157,0.0,0.0,85,0.00,,SCT,0.00,0.00,VWS V14.01,2013-12-09 06:40:00,
2013-12-09 00:45:00,7.4,3.8,30.11,SSE,157,0.0,0.0,85,0.00,,SCT,0.00,0.00,VWS V14.01,2013-12-09 06:45:00,
2013-12-09 00:50:00,7.4,3.8,30.11,SSE,157,0.0,0.0,85,0.00,,SCT,0.00,0.00,VWS V14.01,2013-12-09 06:50:00,
2013-12-09 00:55:00,7.4,3.8,30.10,SSE,165,0.0,0.0,85,0.00,,SCT,0.00,0.00,VWS V14.01,2013-12-09 06:55:00,
2013-12-09 01:00:00,7.4,3.8,30.10,SSE,165,0.0,0.0,85,0.00,,SCT,0.00,0.00,VWS V14.01,2013-12-09 07:00:00,
2013-12-09 01:05:00,7.3,3.8,30.08,SW,231,0.0,0.0,85,0.00,,OVC,0.00,0.00,VWS V15.00,2013-12-09 07:05:00,
2013-12-09 01:06:00,7.4,3.8,30.10,South,175,0.0,0.0,85,0.00,,SCT,0.00,0.00,VWS V14.01,2013-12-09 07:06:00,
2013-12-09 01:10:00,7.3,3.8,30.08,WSW,238,0.0,1.0,85,0.00,,OVC,0.00,0.00,VWS V15.00,2013-12-09 07:10:00,
2013-12-09 01:11:00,7.4,3.8,30.10,South,175,0.0,0.0,85,0.00,,SCT,0.00,0.00,VWS V14.01,2013-12-09 07:11:00,
2013-12-09 01:15:00,7.2,3.7,30.08,WSW,238,0.0,0.0,85,0.00,,OVC,0.00,0.00,VWS V15.00,2013-12-09 07:15:00,
2013-12-09 01:16:00,7.4,3.8,30.09,South,184,0.0,0.0,85,0.00,,SCT,0.00,0.00,VWS V14.01,2013-12-09 07:16:00,
2013-12-09 01:20:00,7.2,3.7,30.08,WSW,238,1.0,1.0,85,0.00,,OVC,0.00,0.00,VWS V15.00,2013-12-09 07:20:00,
2013-12-09 01:21:00,7.3,3.8,30.09,South,184,0.0,0.0,85,0.00,,SCT,0.00,0.00,VWS V14.01,2013-12-09 07:21:00,
2013-12-09 01:25:00,7.1,3.5,30.08,WSW,238,0.0,2.0,85,0.00,,OVC,0.00,0.00,VWS V15.00,2013-12-09 07:25:00,
2013-12-09 01:26:00,7.4,3.8,30.09,South,184,0.0,0.0,85,0.00,,SCT,0.00,0.00,VWS V14.01,2013-12-09 07:26:00,
2013-12-09 01:30:00,7.1,3.5,30.07,WSW,238,0.0,1.0,85,0.00,,OVC,0.00,0.00,VWS V15.00,2013-12-09 07:30:00,
2013-12-09 01:31:00,7.3,3.8,30.09,South,184,0.0,0.0,85,0.00,,SCT,0.00,0.00,VWS V14.01,2013-12-09 07:31:00,
2013-12-09 01:35:00,7.1,3.5,30.07,WSW,238,0.0,2.0,85,0.00,,OVC,0.00,0.00,VWS V15.00,2013-12-09 07:35:00,
2013-12-09 01:36:00,7.3,3.8,30.09,SSW,194,0.0,0.0,85,0.00,,SCT,0.00,0.00,VWS V14.01,2013-12-09 07:36:00,
2013-12-09 01:40:00,7.1,3.5,30.07,West,259,2.0,3.0,85,0.00,,OVC,0.00,0.00,VWS V15.00,2013-12-09 07:40:00,
2013-12-09 01:41:00,7.3,3.8,30.08,SSW,198,0.0,0.0,85,0.00,,SCT,0.00,0.00,VWS V14.01,2013-12-09 07:41:00,
2013-12-09 01:45:00,7.1,3.5,30.07,West,259,1.0,2.0,85,0.00,,OVC,0.00,0.00,VWS V15.00,2013-12-09 07:45:00,
2013-12-09 01:46:00,7.3,3.8,30.08,SSW,207,0.0,0.0,85,0.00,,SCT,0.00,0.00,VWS V14.01,2013-12-09 07:46:00,
2013-12-09 01:50:00,7.1,3.5,30.07,West,259,0.0,4.0,85,0.00,,OVC,0.00,0.00,VWS V15.00,2013-12-09 07:50:00,
2013-12-09 01:51:00,7.3,3.8,30.08,SSW,209,0.0,0.0,85,0.00,,SCT,0.00,0.00,VWS V14.01,2013-12-09 07:51:00,
2013-12-09 01:55:00,7.1,3.5,30.06,WSW,256,3.0,3.0,85,0.00,,OVC,0.00,0.00,VWS V15.00,2013-12-09 07:55:00,
2013-12-09 01:56:00,7.3,3.8,30.08,SSW,209,0.0,0.0,85,0.00,,SCT,0.00,0.00,VWS V14.01,2013-12-09 07:56:00,
2013-12-09 02:00:00,7.1,3.5,30.06,WSW,252,0.0,5.0,85,0.00,,OVC,0.00,0.00,VWS V15.00,2013-12-09 08:00:00,
2013-12-09 02:01:00,7.3,3.8,30.08,SSW,209,0.0,0.0,85,0.00,,SCT,0.00,0.00,VWS V14.01,2013-12-09 08:01:00,
2013-12-09 02:05:00,7.1,3.5,30.05,WSW,257,1.0,3.0,85,0.00,,OVC,0.00,0.00,VWS V15.00,2013-12-09 08:05:00,
2013-12-09 02:06:00,7.3,3.8,30.08,SW,231,0.0,0.0,85,0.00,,SCT,0.00,0.00,VWS V14.01,2013-12-09 08:06:00,
2013-12-09 02:10:00,7.1,3.5,30.05,West,275,2.0,4.0,85,0.00,,OVC,0.00,0.00,VWS V15.00,2013-12-09 08:10:00,
2013-12-09 02:11:00,7.2,3.7,30.08,WSW,238,0.0,1.0,85,0.00,,SCT,0.00,0.00,VWS V14.01,2013-12-09 08:11:00,
2013-12-09 02:15:00,7.1,3.5,30.05,West,267,3.0,3.0,85,0.00,,OVC,0.00,0.00,VWS V15.00,2013-12-09 08:15:00,
2013-12-09 02:16:00,7.2,3.7,30.08,WSW,238,0.0,0.0,85,0.00,,SCT,0.00,0.00,VWS V14.01,2013-12-09 08:16:00,
2013-12-09 02:20:00,7.1,3.5,30.04,West,266,2.0,4.0,85,0.00,,OVC,0.00,0.00,VWS V15.00,2013-12-09 08:20:00,
2013-12-09 02:21:00,7.2,3.7,30.08,WSW,238,0.0,1.0,85,0.00,,SCT,0.00,0.00,VWS V14.01,2013-12-09 08:21:00,
2013-12-09 02:25:00,7.1,3.5,30.04,West,269,2.0,2.0,85,0.00,,OVC,0.00,0.00,VWS V15.00,2013-12-09 08:25:00,
2013-12-09 02:26:00,7.1,3.5,30.08,WSW,238,1.0,2.0,85,0.00,,SCT,0.00,0.00,VWS V14.01,2013-12-09 08:26:00,
2013-12-09 02:30:00,7.1,3.5,30.04,WSW,242,1.0,3.0,85,0.00,,OVC,0.00,0.00,VWS V15.00,2013-12-09 08:30:00,
2013-12-09 02:31:00,7.1,3.5,30.07,WSW,238,0.0,1.0,85,0.00,,SCT,0.00,0.00,VWS V14.01,2013-12-09 08:31:00,
2013-12-09 02:35:00,7.1,3.5,30.04,West,272,0.0,4.0,85,0.00,,OVC,0.00,0.00,VWS V15.00,2013-12-09 08:35:00,
2013-12-09 02:36:00,7.1,3.5,30.07,WSW,238,0.0,2.0,85,0.00,,SCT,0.00,0.00,VWS V14.01,2013-12-09 08:36:00,
2013-12-09 02:40:00,7.1,3.3,30.04,West,281,4.0,6.0,84,0.00,,OVC,0.00,0.00,VWS V15.00,2013-12-09 08:40:00,
2013-12-09 02:41:00,7.1,3.5,30.07,West,262,2.0,3.0,85,0.00,,SCT,0.00,0.00,VWS V14.01,2013-12-09 08:41:00,
2013-12-09 02:45:00,7.1,3.3,30.03,West,267,4.0,5.0,84,0.00,,OVC,0.00,0.00,VWS V15.00,2013-12-09 08:45:00,
2013-12-09 02:46:00,7.1,3.5,30.07,West,260,2.0,2.0,85,0.00,,SCT,0.00,0.00,VWS V14.01,2013-12-09 08:46:00,
2013-12-09 02:50:00,7.1,3.3,30.03,West,267,4.0,7.0,84,0.00,,OVC,0.00,0.00,VWS V15.00,2013-12-09 08:50:00,
2013-12-09 02:51:00,7.1,3.5,30.07,West,259,1.0,4.0,85,0.00,,SCT,0.00,0.00,VWS V14.01,2013-12-09 08:51:00,
2013-12-09 02:55:00,7.1,3.3,30.03,West,271,2.0,7.0,84,0.00,,OVC,0.00,0.00,VWS V15.00,2013-12-09 08:55:00,
2013-12-09 02:56:00,7.1,3.5,30.06,West,264,0.0,2.0,85,0.00,,SCT,0.00,0.00,VWS V14.01,2013-12-09 08:56:00,
2013-12-09 03:00:00,7.1,3.3,30.03,WSW,250,5.0,6.0,84,0.00,,OVC,0.00,0.00,VWS V15.00,2013-12-09 09:00:00,
2013-12-09 03:01:00,7.1,3.5,30.06,WSW,252,2.0,5.0,85,0.00,,SCT,0.00,0.00,VWS V14.01,2013-12-09 09:01:00,
2013-12-09 03:05:00,7.1,3.3,30.03,West,261,4.0,5.0,84,0.00,,OVC,0.00,0.00,VWS V15.00,2013-12-09 09:05:00,
2013-12-09 03:06:00,7.1,3.5,30.05,WSW,257,0.0,3.0,85,0.00,,SCT,0.00,0.00,VWS V14.01,2013-12-09 09:06:00,
2013-12-09 03:10:00,7.0,3.2,30.03,West,273,3.0,7.0,84,0.00,,OVC,0.00,0.00,VWS V15.00,2013-12-09 09:10:00,
2013-12-09 03:11:00,7.1,3.5,30.05,West,275,1.0,4.0,85,0.00,,SCT,0.00,0.00,VWS V14.01,2013-12-09 09:11:00,
2013-12-09 03:15:00,7.0,3.2,30.03,WSW,256,3.0,6.0,84,0.00,,OVC,0.00,0.00,VWS V15.00,2013-12-09 09:15:00,
2013-12-09 03:16:00,7.1,3.5,30.05,West,263,2.0,3.0,85,0.00,,SCT,0.00,0.00,VWS V14.01,2013-12-09 09:16:00,
2013-12-09 03:20:00,6.9,3.1,30.02,West,274,2.0,7.0,84,0.00,,OVC,0.00,0.00,VWS V15.00,2013-12-09 09:20:00,
2013-12-09 03:21:00,7.1,3.5,30.04,West,277,2.0,4.0,85,0.00,,SCT,0.00,0.00,VWS V14.01,2013-12-09 09:21:00,
2013-12-09 03:25:00,6.8,3.0,30.02,West,280,2.0,7.0,84,0.00,,OVC,0.00,0.00,VWS V15.00,2013-12-09 09:25:00,
2013-12-09 03:26:00,7.1,3.5,30.04,West,265,1.0,2.0,85,0.00,,SCT,0.00,0.00,VWS V14.01,2013-12-09 09:26:00,
2013-12-09 03:30:00,6.7,2.9,30.02,West,271,5.0,8.0,84,0.00,,OVC,0.00,0.00,VWS V15.00,2013-12-09 09:30:00,
2013-12-09 03:31:00,7.1,3.5,30.04,WSW,241,2.0,3.0,85,0.00,,SCT,0.00,0.00,VWS V14.01,2013-12-09 09:31:00,
2013-12-09 03:35:00,6.6,2.8,30.03,West,268,4.0,9.0,84,0.00,,OVC,0.00,0.00,VWS V15.00,2013-12-09 09:35:00,
2013-12-09 03:36:00,7.1,3.5,30.04,West,272,0.0,4.0,85,0.00,,SCT,0.00,0.00,VWS V14.01,2013-12-09 09:36:00,
2013-12-09 03:40:00,6.5,2.7,30.02,WSW,258,3.0,6.0,84,0.00,,OVC,0.00,0.00,VWS V15.00,2013-12-09 09:40:00,
2013-12-09 03:41:00,7.1,3.5,30.04,West,272,0.0,6.0,85,0.00,,SCT,0.00,0.00,VWS V14.01,2013-12-09 09:41:00,
2013-12-09 03:45:00,6.5,2.7,30.02,West,268,5.0,6.0,84,0.00,,OVC,0.00,0.00,VWS V15.00,2013-12-09 09:45:00,
2013-12-09 03:46:00,7.1,3.3,30.03,West,267,3.0,4.0,84,0.00,,SCT,0.00,0.00,VWS V14.01,2013-12-09 09:46:00,
2013-12-09 03:50:00,6.4,2.6,30.02,West,267,3.0,6.0,84,0.00,,OVC,0.00,0.00,VWS V15.00,2013-12-09 09:50:00,
2013-12-09 03:51:00,7.1,3.3,30.03,West,268,4.0,7.0,84,0.00,,SCT,0.00,0.00,VWS V14.01,2013-12-09 09:51:00,
2013-12-09 03:55:00,6.3,2.2,30.02,WSW,254,3.0,6.0,83,0.00,,OVC,0.00,0.00,VWS V15.00,2013-12-09 09:55:00,
2013-12-09 03:56:00,7.1,3.3,30.03,West,271,2.0,7.0,84,0.00,,SCT,0.00,0.00,VWS V14.01,2013-12-09 09:56:00,
2013-12-09 04:00:00,6.2,2.2,30.01,West,267,3.0,5.0,83,0.00,,OVC,0.00,0.00,VWS V15.00,2013-12-09 10:00:00,
2013-12-09 04:01:00,7.1,3.3,30.03,West,267,6.0,6.0,84,0.00,,SCT,0.00,0.00,VWS V14.01,2013-12-09 10:01:00,
2013-12-09 04:05:00,6.0,2.0,30.01,West,267,4.0,6.0,83,0.00,,OVC,0.00,0.00,VWS V15.00,2013-12-09 10:05:00,
2013-12-09 04:06:00,7.0,3.2,30.03,West,267,4.0,5.0,84,0.00,,SCT,0.00,0.00,VWS V14.01,2013-12-09 10:06:00,
2013-12-09 04:10:00,5.8,1.8,30.01,West,272,2.0,7.0,83,0.00,,OVC,0.00,0.00,VWS V15.00,2013-12-09 10:10:00,
2013-12-09 04:11:00,7.0,3.2,30.03,West,272,3.0,7.0,84,0.00,,SCT,0.00,0.00,VWS V14.01,2013-12-09 10:11:00,
2013-12-09 04:15:00,5.7,1.7,30.01,West,269,3.0,5.0,83,0.00,,OVC,0.00,0.00,VWS V15.00,2013-12-09 10:15:00,
2013-12-09 04:16:00,7.0,3.2,30.03,West,263,3.0,6.0,84,0.00,,SCT,0.00,0.00,VWS V14.01,2013-12-09 10:16:00,
2013-12-09 04:20:00,5.5,1.5,30.01,WSW,257,1.0,3.0,83,0.00,,OVC,0.00,0.00,VWS V15.00,2013-12-09 10:20:00,
2013-12-09 04:21:00,6.9,3.1,30.02,West,273,1.0,7.0,84,0.00,,SCT,0.00,0.00,VWS V14.01,2013-12-09 10:21:00,
2013-12-09 04:25:00,5.4,1.4,30.01,West,261,3.0,4.0,83,0.00,,OVC,0.00,0.00,VWS V15.00,2013-12-09 10:25:00,
2013-12-09 04:26:00,6.8,3.0,30.02,West,281,3.0,7.0,84,0.00,,SCT,0.00,0.00,VWS V14.01,2013-12-09 10:26:00,
2013-12-09 04:30:00,5.2,1.2,30.01,WSW,246,1.0,5.0,83,0.00,,OVC,0.00,0.00,VWS V15.00,2013-12-09 10:30:00,
2013-12-09 04:31:00,6.7,2.9,30.02,West,269,5.0,8.0,84,0.00,,SCT,0.00,0.00,VWS V14.01,2013-12-09 10:31:00,
2013-12-09 04:35:00,5.0,1.0,30.01,West,263,2.0,3.0,83,0.00,,OVC,0.00,0.00,VWS V15.00,2013-12-09 10:35:00,
2013-12-09 04:36:00,6.6,2.8,30.03,West,269,2.0,9.0,84,0.00,,SCT,0.00,0.00,VWS V14.01,2013-12-09 10:36:00,
2013-12-09 04:40:00,4.8,0.5,30.01,WSW,256,2.0,5.0,82,0.00,,OVC,0.00,0.00,VWS V15.00,2013-12-09 10:40:00,
2013-12-09 04:41:00,6.6,2.8,30.02,West,263,3.0,6.0,84,0.00,,SCT,0.00,0.00,VWS V14.01,2013-12-09 10:41:00,
2013-12-09 04:45:00,4.5,0.2,30.01,WSW,255,1.0,3.0,82,0.00,,OVC,0.00,0.00,VWS V15.00,2013-12-09 10:45:00,
2013-12-09 04:46:00,6.5,2.7,30.02,West,264,4.0,6.0,84,0.00,,SCT,0.00,0.00,VWS V14.01,2013-12-09 10:46:00,
2013-12-09 04:50:00,3.9,-0.6,30.01,WSW,246,2.0,3.0,81,0.00,,OVC,0.00,0.00,VWS V15.00,2013-12-09 10:50:00,
2013-12-09 04:51:00,6.4,2.6,30.02,West,267,3.0,6.0,84,0.00,,SCT,0.00,0.00,VWS V14.01,2013-12-09 10:51:00,
2013-12-09 04:55:00,3.6,-0.6,30.00,West,267,2.0,5.0,82,0.00,,OVC,0.00,0.00,VWS V15.00,2013-12-09 10:55:00,
2013-12-09 04:56:00,6.3,2.2,30.02,WSW,254,3.0,6.0,83,0.00,,SCT,0.00,0.00,VWS V14.01,2013-12-09 10:56:00,
2013-12-09 05:00:00,3.5,-0.8,30.00,West,267,0.0,2.0,82,0.00,,OVC,0.00,0.00,VWS V15.00,2013-12-09 11:00:00,
2013-12-09 05:01:00,6.2,2.2,30.01,West,267,3.0,5.0,83,0.00,,SCT,0.00,0.00,VWS V14.01,2013-12-09 11:01:00,
2013-12-09 05:05:00,3.5,-0.5,30.00,SW,234,2.0,4.0,83,0.00,,OVC,0.00,0.00,VWS V15.00,2013-12-09 11:05:00,
2013-12-09 05:06:00,6.0,2.0,30.01,West,260,5.0,5.0,83,0.00,,SCT,0.00,0.00,VWS V14.01,2013-12-09 11:06:00,
2013-12-09 05:10:00,3.3,-0.7,30.00,WSW,248,4.0,5.0,83,0.00,,OVC,0.00,0.00,VWS V15.00,2013-12-09 11:10:00,
2013-12-09 05:11:00,5.8,1.8,30.01,West,274,3.0,3.0,83,0.00,,SCT,0.00,0.00,VWS V14.01,2013-12-09 11:11:00,
2013-12-09 05:15:00,3.3,-0.7,30.00,West,263,2.0,6.0,83,0.00,,OVC,0.00,0.00,VWS V15.00,2013-12-09 11:15:00,
2013-12-09 05:17:00,5.7,1.7,30.01,West,269,3.0,3.0,83,0.00,,SCT,0.00,0.00,VWS V14.01,2013-12-09 11:17:00,
2013-12-09 05:20:00,3.3,-0.7,30.01,West,260,2.0,6.0,83,0.00,,OVC,0.00,0.00,VWS V15.00,2013-12-09 11:20:00,
2013-12-09 05:22:00,5.5,1.5,30.01,WSW,257,0.0,1.0,83,0.00,,SCT,0.00,0.00,VWS V14.01,2013-12-09 11:22:00,
2013-12-09 05:25:00,3.3,-0.4,30.00,West,265,3.0,6.0,84,0.00,,OVC,0.00,0.00,VWS V15.00,2013-12-09 11:25:00,
2013-12-09 05:27:00,5.4,1.4,30.01,West,263,3.0,3.0,83,0.00,,SCT,0.00,0.00,VWS V14.01,2013-12-09 11:27:00,
2013-12-09 05:30:00,3.4,-0.3,30.00,West,265,2.0,5.0,84,0.00,,OVC,0.00,0.00,VWS V15.00,2013-12-09 11:30:00,
2013-12-09 05:32:00,5.2,1.2,30.01,WSW,246,2.0,2.0,83,0.00,,SCT,0.00,0.00,VWS V14.01,2013-12-09 11:32:00,
2013-12-09 05:35:00,3.4,-0.3,30.00,West,265,5.0,6.0,84,0.00,,OVC,0.00,0.00,VWS V15.00,2013-12-09 11:35:00,
2013-12-09 05:37:00,5.0,1.0,30.01,West,263,0.0,2.0,83,0.00,,SCT,0.00,0.00,VWS V14.01,2013-12-09 11:37:00,
2013-12-09 05:40:00,3.5,-0.2,30.00,West,267,3.0,5.0,84,0.00,,OVC,0.00,0.00,VWS V15.00,2013-12-09 11:40:00,
2013-12-09 05:42:00,4.8,0.5,30.01,WSW,256,1.0,2.0,82,0.00,,SCT,0.00,0.00,VWS V14.01,2013-12-09 11:42:00,
2013-12-09 05:45:00,3.5,-0.2,30.00,WSW,244,5.0,6.0,84,0.00,,OVC,0.00,0.00,VWS V15.00,2013-12-09 11:45:00,
2013-12-09 05:47:00,4.3,0.0,30.01,WSW,255,2.0,2.0,82,0.00,,SCT,0.00,0.00,VWS V14.01,2013-12-09 11:47:00,
2013-12-09 05:50:00,3.5,0.0,30.00,West,263,4.0,6.0,85,0.00,,OVC,0.00,0.00,VWS V15.00,2013-12-09 11:50:00,
2013-12-09 05:52:00,3.8,-0.7,30.01,WSW,246,1.0,2.0,81,0.00,,SCT,0.00,0.00,VWS V14.01,2013-12-09 11:52:00,
2013-12-09 05:55:00,3.6,-0.1,30.00,WSW,258,3.0,8.0,84,0.00,,OVC,0.00,0.00,VWS V15.00,2013-12-09 11:55:00,
2013-12-09 05:57:00,3.6,-0.6,30.00,West,267,1.0,2.0,82,0.00,,SCT,0.00,0.00,VWS V14.01,2013-12-09 11:57:00,
2013-12-09 06:00:00,3.6,-0.1,30.00,West,263,5.0,6.0,84,0.00,,OVC,0.00,0.00,VWS V15.00,2013-12-09 12:00:00,
2013-12-09 06:02:00,3.5,-0.5,30.00,West,267,0.0,0.0,83,0.00,,SCT,0.00,0.00,VWS V14.01,2013-12-09 12:02:00,
2013-12-09 06:05:00,3.6,0.1,30.00,West,259,1.0,8.0,85,0.00,,OVC,0.00,0.00,VWS V15.00,2013-12-09 12:05:00,
2013-12-09 06:07:00,3.4,-0.6,30.00,SW,234,1.0,2.0,83,0.00,,SCT,0.00,0.00,VWS V14.01,2013-12-09 12:07:00,
2013-12-09 06:10:00,3.6,-0.1,30.00,West,263,3.0,6.0,84,0.00,,OVC,0.00,0.00,VWS V15.00,2013-12-09 12:10:00,
2013-12-09 06:12:00,3.3,-0.7,30.00,SW,235,2.0,6.0,83,0.00,,SCT,0.00,0.00,VWS V14.01,2013-12-09 12:12:00,
2013-12-09 06:15:00,3.5,-0.2,30.00,WSW,248,3.0,6.0,84,0.01,,OVC,0.01,0.00,VWS V15.00,2013-12-09 12:15:00,
2013-12-09 06:17:00,3.3,-0.7,30.00,West,263,1.0,2.0,83,0.00,,SCT,0.00,0.00,VWS V14.01,2013-12-09 12:17:00,
2013-12-09 06:20:00,3.5,-0.2,30.00,WSW,250,3.0,6.0,84,0.02,,OVC,0.02,0.00,VWS V15.00,2013-12-09 12:20:00,
2013-12-09 06:22:00,3.3,-0.4,30.01,West,270,3.0,3.0,84,0.00,,SCT,0.00,0.00,VWS V14.01,2013-12-09 12:22:00,
2013-12-09 06:25:00,3.5,0.0,29.99,WSW,254,3.0,7.0,85,0.02,,OVC,0.02,0.00,VWS V15.00,2013-12-09 12:25:00,
2013-12-09 06:27:00,3.3,-0.4,30.00,West,266,3.0,5.0,84,0.00,,SCT,0.00,0.00,VWS V14.01,2013-12-09 12:27:00,
2013-12-09 06:30:00,3.5,0.0,29.99,West,259,5.0,7.0,85,0.02,,OVC,0.02,0.00,VWS V15.00,2013-12-09 12:30:00,
2013-12-09 06:32:00,3.4,-0.3,30.00,West,267,4.0,4.0,84,0.00,,SCT,0.00,0.00,VWS V14.01,2013-12-09 12:32:00,
2013-12-09 06:35:00,3.4,-0.3,29.99,WSW,242,5.0,7.0,84,0.03,,OVC,0.03,0.00,VWS V15.00,2013-12-09 12:35:00,
2013-12-09 06:37:00,3.4,-0.3,30.00,West,271,3.0,5.0,84,0.00,,SCT,0.00,0.00,VWS V14.01,2013-12-09 12:37:00,
2013-12-09 06:40:00,3.2,-0.5,29.99,WSW,252,5.0,7.0,84,0.03,,OVC,0.03,0.00,VWS V15.00,2013-12-09 12:40:00,
2013-12-09 06:42:00,3.5,-0.2,30.00,WSW,246,3.0,3.0,84,0.00,,SCT,0.00,0.00,VWS V14.01,2013-12-09 12:42:00,
2013-12-09 06:45:00,3.0,-0.7,29.99,West,263,5.0,9.0,84,0.03,,OVC,0.03,0.00,VWS V15.00,2013-12-09 12:45:00,
2013-12-09 06:47:00,3.5,0.0,30.00,West,262,4.0,6.0,85,0.00,,SCT,0.00,0.00,VWS V14.01,2013-12-09 12:47:00,
2013-12-09 06:50:00,2.9,-0.8,29.99,WSW,252,2.0,6.0,84,0.03,,OVC,0.03,0.00,VWS V15.00,2013-12-09 12:50:00,
2013-12-09 06:52:00,3.6,-0.1,30.00,West,271,8.0,8.0,84,0.00,,SCT,0.00,0.00,VWS V14.01,2013-12-09 12:52:00,
2013-12-09 06:55:00,2.8,-0.9,30.00,WSW,251,5.0,7.0,84,0.04,,OVC,0.04,7.00,VWS V15.00,2013-12-09 12:55:00,
2013-12-09 06:57:00,3.6,-0.1,30.00,West,259,2.0,4.0,84,0.00,,SCT,0.00,0.00,VWS V14.01,2013-12-09 12:57:00,
2013-12-09 07:00:00,2.8,-0.9,29.99,WSW,249,4.0,9.0,84,0.04,,OVC,0.04,7.00,VWS V15.00,2013-12-09 13:00:00,
2013-12-09 07:02:00,3.6,-0.1,30.00,West,265,7.0,8.0,84,0.00,,SCT,0.00,0.00,VWS V14.01,2013-12-09 13:02:00,
2013-12-09 07:05:00,2.8,-0.9,29.99,SW,236,6.0,8.0,84,0.04,,OVC,0.04,7.00,VWS V15.00,2013-12-09 13:05:00,
2013-12-09 07:07:00,3.6,-0.1,30.00,West,259,2.0,3.0,84,0.00,,SCT,0.00,0.00,VWS V14.01,2013-12-09 13:07:00,
2013-12-09 07:10:00,2.8,-0.9,30.00,WSW,244,5.0,9.0,84,0.04,,OVC,0.04,12.00,VWS V15.00,2013-12-09 13:10:00,
2013-12-09 07:12:00,3.6,-0.1,30.00,WSW,255,4.0,5.0,84,0.00,,SCT,0.00,0.00,VWS V14.01,2013-12-09 13:12:00,
2013-12-09 07:15:00,2.8,-0.9,29.99,SW,232,5.0,8.0,84,0.04,,OVC,0.04,19.00,VWS V15.00,2013-12-09 13:15:00,
2013-12-09 07:18:00,3.5,-0.2,30.00,West,259,3.0,6.0,84,0.01,,SCT,0.01,0.00,VWS V14.01,2013-12-09 13:18:00,
2013-12-09 07:20:00,2.8,-0.9,29.99,WSW,250,2.0,8.0,84,0.04,,OVC,0.05,19.00,VWS V15.00,2013-12-09 13:20:00,
2013-12-09 07:23:00,3.5,-0.2,30.00,WSW,254,2.0,3.0,84,0.02,,SCT,0.02,0.00,VWS V14.01,2013-12-09 13:23:00,
2013-12-09 07:25:00,2.8,-0.9,29.99,SW,222,2.0,5.0,84,0.03,,OVC,0.05,18.00,VWS V15.00,2013-12-09 13:25:00,
2013-12-09 07:28:00,3.5,0.0,29.99,West,263,4.0,5.0,85,0.02,,SCT,0.02,0.00,VWS V14.01,2013-12-09 13:28:00,
2013-12-09 07:30:00,2.8,-0.9,29.99,WSW,242,3.0,5.0,84,0.03,,OVC,0.05,19.00,VWS V15.00,2013-12-09 13:30:00,
2013-12-09 07:33:00,3.4,-0.1,30.00,WSW,242,5.0,7.0,85,0.02,,SCT,0.02,0.00,VWS V14.01,2013-12-09 13:33:00,
2013-12-09 07:35:00,2.8,-0.9,29.99,WSW,246,4.0,5.0,84,0.03,,OVC,0.05,21.00,VWS V15.00,2013-12-09 13:35:00,
2013-12-09 07:38:00,3.3,-0.2,29.99,WSW,250,3.0,5.0,85,0.03,,SCT,0.03,0.00,VWS V14.01,2013-12-09 13:38:00,
2013-12-09 07:40:00,2.8,-0.9,29.99,WSW,247,4.0,5.0,84,0.02,,OVC,0.05,23.00,VWS V15.00,2013-12-09 13:40:00,
2013-12-09 07:43:00,3.2,-0.5,29.99,WSW,244,6.0,7.0,84,0.03,,SCT,0.03,0.00,VWS V14.01,2013-12-09 13:43:00,
2013-12-09 07:45:00,2.8,-0.9,29.99,WSW,250,3.0,5.0,84,0.02,,OVC,0.05,21.00,VWS V15.00,2013-12-09 13:45:00,
2013-12-09 07:48:00,3.0,-0.7,29.99,West,264,4.0,6.0,84,0.03,,SCT,0.03,0.00,VWS V14.01,2013-12-09 13:48:00,
2013-12-09 07:50:00,3.0,-0.7,29.99,WSW,248,4.0,5.0,84,0.02,,OVC,0.05,19.00,VWS V15.00,2013-12-09 13:50:00,
2013-12-09 07:53:00,2.9,-0.8,30.00,West,267,5.0,7.0,84,0.03,,OVC,0.03,5.00,VWS V14.01,2013-12-09 13:53:00,
2013-12-09 07:55:00,3.1,-0.6,29.99,WSW,252,5.0,7.0,84,0.02,,OVC,0.05,25.00,VWS V15.00,2013-12-09 13:55:00,
2013-12-09 07:58:00,2.8,-0.9,30.00,West,265,6.0,7.0,84,0.04,,OVC,0.04,5.00,VWS V14.01,2013-12-09 13:58:00,
2013-12-09 08:00:00,3.2,-0.5,29.99,West,262,8.0,9.0,84,0.01,,OVC,0.05,30.00,VWS V15.00,2013-12-09 14:00:00,
2013-12-09 08:03:00,2.8,-0.9,29.99,WSW,254,5.0,8.0,84,0.04,,OVC,0.04,7.00,VWS V14.01,2013-12-09 14:03:00,
2013-12-09 08:05:00,3.2,-0.8,29.99,WSW,240,7.0,9.0,83,0.01,,OVC,0.05,30.00,VWS V15.00,2013-12-09 14:05:00,
2013-12-09 08:08:00,2.8,-0.9,29.99,WSW,242,5.0,9.0,84,0.04,,OVC,0.04,9.00,VWS V14.01,2013-12-09 14:08:00,
2013-12-09 08:10:00,3.2,-0.8,29.99,WSW,251,6.0,10.0,83,0.01,,OVC,0.05,28.00,VWS V15.00,2013-12-09 14:10:00,
2013-12-09 08:13:00,2.8,-0.9,29.99,WSW,240,4.0,6.0,84,0.04,,OVC,0.04,14.00,VWS V14.01,2013-12-09 14:13:00,
2013-12-09 08:15:00,3.1,-0.9,29.99,WSW,248,3.0,7.0,83,0.01,,OVC,0.05,47.00,VWS V15.00,2013-12-09 14:15:00,
2013-12-09 08:18:00,2.8,-0.9,29.99,WSW,248,3.0,8.0,84,0.03,,OVC,0.04,19.00,VWS V14.01,2013-12-09 14:18:00,
2013-12-09 08:20:00,3.2,-0.8,29.99,WSW,252,5.0,10.0,83,0.02,,OVC,0.06,56.00,VWS V15.00,2013-12-09 14:20:00,
2013-12-09 08:23:00,2.8,-0.9,29.99,WSW,250,4.0,5.0,84,0.03,,OVC,0.05,19.00,VWS V14.01,2013-12-09 14:23:00,
2013-12-09 08:25:00,3.3,-0.7,29.99,West,272,8.0,11.0,83,0.01,,OVC,0.06,39.00,VWS V15.00,2013-12-09 14:25:00,
2013-12-09 08:28:00,2.8,-0.9,29.99,WSW,237,1.0,4.0,84,0.03,,OVC,0.05,19.00,VWS V14.01,2013-12-09 14:28:00,
2013-12-09 08:30:00,3.2,-1.0,29.99,WSW,248,10.0,17.0,82,0.01,,OVC,0.06,35.00,VWS V15.00,2013-12-09 14:30:00,
2013-12-09 08:33:00,2.8,-0.9,29.99,WSW,240,2.0,4.0,84,0.03,,OVC,0.05,21.00,VWS V14.01,2013-12-09 14:33:00,
2013-12-09 08:35:00,2.9,-1.6,30.00,West,260,9.0,16.0,81,0.01,,OVC,0.06,56.00,VWS V15.00,2013-12-09 14:35:00,
2013-12-09 08:38:00,2.8,-0.9,29.99,WSW,250,4.0,4.0,84,0.02,,OVC,0.05,23.00,VWS V14.01,2013-12-09 14:38:00,
2013-12-09 08:40:00,2.8,-1.7,30.00,West,262,9.0,15.0,81,0.01,,OVC,0.06,51.00,VWS V15.00,2013-12-09 14:40:00,
2013-12-09 08:43:00,2.8,-0.9,29.99,WSW,250,4.0,4.0,84,0.02,,OVC,0.05,25.00,VWS V14.01,2013-12-09 14:43:00,
2013-12-09 08:45:00,2.6,-1.9,30.00,West,278,11.0,14.0,81,0.01,,OVC,0.06,51.00,VWS V15.00,2013-12-09 14:45:00,
2013-12-09 08:48:00,2.9,-0.8,29.99,WSW,252,4.0,5.0,84,0.02,,OVC,0.05,19.00,VWS V14.01,2013-12-09 14:48:00,
2013-12-09 08:50:00,2.4,-2.1,30.00,West,277,11.0,14.0,81,0.01,,OVC,0.06,42.00,VWS V15.00,2013-12-09 14:50:00,
2013-12-09 08:53:00,3.1,-0.6,29.99,WSW,252,3.0,5.0,84,0.02,,OVC,0.05,19.00,VWS V14.01,2013-12-09 14:53:00,
2013-12-09 08:55:00,2.3,-2.2,30.00,WSW,245,11.0,13.0,81,0.01,,OVC,0.06,58.00,VWS V15.00,2013-12-09 14:55:00,
2013-12-09 08:58:00,3.1,-0.6,29.99,WSW,256,5.0,7.0,84,0.01,,OVC,0.05,23.00,VWS V14.01,2013-12-09 14:58:00,
2013-12-09 09:00:00,2.2,-2.5,30.00,WSW,242,8.0,15.0,80,0.01,,OVC,0.06,51.00,VWS V15.00,2013-12-09 15:00:00,
2013-12-09 09:04:00,3.2,-0.5,29.99,WSW,248,6.0,9.0,84,0.01,,OVC,0.05,32.00,VWS V14.01,2013-12-09 15:04:00,
2013-12-09 09:05:00,2.0,-2.7,30.00,West,273,15.0,17.0,80,0.01,,OVC,0.06,42.00,VWS V15.00,2013-12-09 15:05:00,
2013-12-09 09:09:00,3.2,-0.5,30.00,West,270,10.0,10.0,84,0.01,,OVC,0.05,28.00,VWS V14.01,2013-12-09 15:09:00,
2013-12-09 09:10:00,1.8,-2.9,30.00,West,262,8.0,15.0,80,0.01,,OVC,0.06,54.00,VWS V15.00,2013-12-09 15:10:00,
2013-12-09 09:14:00,3.1,-0.9,29.99,WSW,245,7.0,7.0,83,0.01,,OVC,0.05,44.00,VWS V14.01,2013-12-09 15:14:00,
2013-12-09 09:15:00,1.6,-3.1,30.00,WSW,246,12.0,16.0,80,0.01,,OVC,0.06,69.00,VWS V15.00,2013-12-09 15:15:00,
2013-12-09 09:19:00,3.1,-0.9,29.99,West,265,9.0,9.0,83,0.01,,OVC,0.05,65.00,VWS V14.01,2013-12-09 15:19:00,
2013-12-09 09:20:00,1.5,-3.5,30.00,WSW,246,8.0,17.0,79,0.01,,OVC,0.06,76.00,VWS V15.00,2013-12-09 15:20:00,
2013-12-09 09:24:00,3.3,-0.7,29.99,West,263,7.0,11.0,83,0.01,,OVC,0.06,47.00,VWS V14.01,2013-12-09 15:24:00,
2013-12-09 09:25:00,1.5,-3.2,29.99,WSW,258,9.0,16.0,80,0.00,,OVC,0.06,74.00,VWS V15.00,2013-12-09 15:25:00,
2013-12-09 09:29:00,3.3,-0.9,29.99,WSW,258,14.0,17.0,82,0.01,,OVC,0.06,32.00,VWS V14.01,2013-12-09 15:29:00,
2013-12-09 09:30:00,1.5,-3.2,29.99,WSW,257,5.0,16.0,80,0.00,,OVC,0.06,70.00,VWS V15.00,2013-12-09 15:30:00,
2013-12-09 09:34:00,3.0,-1.2,30.00,West,263,11.0,16.0,82,0.01,,OVC,0.06,37.00,VWS V14.01,2013-12-09 15:34:00,
2013-12-09 09:35:00,1.3,-3.7,29.99,West,266,10.0,14.0,79,0.00,,OVC,0.06,58.00,VWS V15.00,2013-12-09 15:35:00,
2013-12-09 09:39:00,2.8,-1.7,30.00,West,271,7.0,14.0,81,0.01,,OVC,0.06,51.00,VWS V14.01,2013-12-09 15:39:00,
2013-12-09 09:40:00,1.0,-4.0,29.99,WSW,251,11.0,18.0,79,0.00,,OVC,0.06,81.00,VWS V15.00,2013-12-09 15:40:00,
2013-12-09 09:44:00,2.6,-1.9,30.00,WSW,242,9.0,14.0,81,0.01,,OVC,0.06,56.00,VWS V14.01,2013-12-09 15:44:00,
2013-12-09 09:45:00,0.5,-4.7,29.99,West,277,11.0,14.0,78,0.00,,OVC,0.06,72.00,VWS V15.00,2013-12-09 15:45:00,
2013-12-09 09:49:00,2.5,-2.0,30.00,WSW,258,6.0,14.0,81,0.01,,OVC,0.06,44.00,VWS V14.01,2013-12-09 15:49:00,
2013-12-09 09:50:00,0.1,-5.1,29.99,WSW,246,11.0,19.0,78,0.00,,OVC,0.06,54.00,VWS V15.00,2013-12-09 15:50:00,
2013-12-09 09:54:00,2.4,-2.1,30.00,West,265,8.0,11.0,81,0.01,,OVC,0.06,56.00,VWS V14.01,2013-12-09 15:54:00,
2013-12-09 09:55:00,-0.1,-5.3,29.99,WSW,238,11.0,16.0,78,0.00,,OVC,0.06,74.00,VWS V15.00,2013-12-09 15:55:00,
2013-12-09 09:59:00,2.2,-2.5,30.00,WSW,239,15.0,15.0,80,0.01,,OVC,0.06,63.00,VWS V14.01,2013-12-09 15:59:00,
2013-12-09 10:00:00,-0.3,-5.5,30.00,West,277,8.0,16.0,78,0.00,,OVC,0.06,67.00,VWS V15.00,2013-12-09 16:00:00,
2013-12-09 10:04:00,2.1,-2.6,30.00,WNW,282,16.0,16.0,80,0.01,,OVC,0.06,42.00,VWS V14.01,2013-12-09 16:04:00,
2013-12-09 10:05:00,-0.3,-5.5,30.00,West,268,17.0,17.0,78,0.00,,OVC,0.06,83.00,VWS V15.00,2013-12-09 16:05:00,
2013-12-09 10:09:00,1.8,-2.9,30.00,WNW,288,9.0,15.0,80,0.01,,OVC,0.06,54.00,VWS V14.01,2013-12-09 16:09:00,
2013-12-09 10:10:00,-0.3,-5.5,30.00,WSW,252,11.0,17.0,78,0.00,,OVC,0.06,105.00,VWS V15.00,2013-12-09 16:10:00,
2013-12-09 10:14:00,1.7,-3.0,30.00,WSW,244,11.0,13.0,80,0.01,,OVC,0.06,76.00,VWS V14.01,2013-12-09 16:14:00,
2013-12-09 10:15:00,-0.3,-5.5,30.00,WSW,248,9.0,19.0,78,0.00,,OVC,0.06,144.00,VWS V15.00,2013-12-09 16:15:00,
2013-12-09 10:19:00,1.5,-3.5,30.00,WSW,254,13.0,17.0,79,0.01,,OVC,0.06,69.00,VWS V14.01,2013-12-09 16:19:00,
2013-12-09 10:20:00,-0.1,-5.6,30.00,WSW,257,12.0,16.0,77,0.00,,OVC,0.06,121.00,VWS V15.00,2013-12-09 16:20:00,
2013-12-09 10:24:00,1.5,-3.5,30.00,WSW,258,7.0,16.0,79,0.00,,OVC,0.06,72.00,VWS V14.01,2013-12-09 16:24:00,
2013-12-09 10:25:00,-0.3,-6.1,29.99,West,267,13.0,19.0,76,0.00,,OVC,0.06,163.00,VWS V15.00,2013-12-09 16:25:00,
2013-12-09 10:29:00,1.6,-3.4,29.99,West,279,7.0,16.0,79,0.00,,OVC,0.06,84.00,VWS V14.01,2013-12-09 16:29:00,
2013-12-09 10:30:00,-0.4,-6.1,29.99,WSW,250,10.0,17.0,76,0.00,,OVC,0.06,134.00,VWS V15.00,2013-12-09 16:30:00,
2013-12-09 10:34:00,1.5,-3.5,29.99,WSW,246,9.0,14.0,79,0.00,,OVC,0.06,77.00,VWS V14.01,2013-12-09 16:34:00,
2013-12-09 10:35:00,-0.5,-6.0,30.00,West,261,10.0,18.0,77,0.00,,OVC,0.06,114.00,VWS V15.00,2013-12-09 16:35:00,
2013-12-09 10:39:00,1.2,-3.8,29.99,WSW,255,9.0,18.0,79,0.00,,OVC,0.06,79.00,VWS V14.01,2013-12-09 16:39:00,
2013-12-09 10:40:00,-0.5,-6.0,29.99,West,263,8.0,18.0,77,0.00,,OVC,0.06,121.00,VWS V15.00,2013-12-09 16:40:00,
2013-12-09 10:44:00,0.7,-4.3,29.99,WSW,258,10.0,14.0,79,0.00,,OVC,0.06,83.00,VWS V14.01,2013-12-09 16:44:00,
2013-12-09 10:45:00,-0.4,-5.6,29.99,West,269,11.0,17.0,78,0.00,,OVC,0.06,127.00,VWS V15.00,2013-12-09 16:45:00,
2013-12-09 10:50:00,0.2,-5.0,29.99,West,275,12.0,19.0,78,0.00,,OVC,0.06,60.00,VWS V14.01,2013-12-09 16:50:00,
2013-12-09 10:55:00,-0.1,-5.2,29.99,WSW,254,14.0,16.0,78,0.00,,OVC,0.06,62.00,VWS V14.01,2013-12-09 16:55:00,
2013-12-09 11:00:00,-0.2,-5.4,30.00,WSW,245,12.0,16.0,78,0.00,,OVC,0.06,62.00,VWS V14.01,2013-12-09 17:00:00,
2013-12-09 11:05:00,-0.3,-5.5,30.00,West,271,16.0,16.0,78,0.00,,OVC,0.06,69.00,VWS V14.01,2013-12-09 17:05:00,
2013-12-09 11:10:00,-0.3,-5.5,30.00,West,264,9.0,17.0,78,0.00,,OVC,0.06,98.00,VWS V14.01,2013-12-09 17:10:00,
2013-12-09 11:15:00,-0.3,-5.5,30.00,WSW,248,9.0,19.0,78,0.00,,OVC,0.06,144.00,VWS V14.01,2013-12-09 17:15:00,
2013-12-09 11:20:00,-0.2,-5.7,30.00,West,267,16.0,16.0,77,0.00,,OVC,0.06,149.00,VWS V14.01,2013-12-09 17:20:00,
2013-12-09 11:25:00,-0.3,-5.8,29.99,WSW,257,11.0,19.0,77,0.00,,OVC,0.06,165.00,VWS V14.01,2013-12-09 17:25:00,
2013-12-09 11:30:00,-0.4,-6.1,29.99,West,273,9.0,17.0,76,0.00,,OVC,0.06,149.00,VWS V14.01,2013-12-09 17:30:00,
2013-12-09 11:35:00,-0.5,-6.0,30.00,WSW,257,8.0,18.0,77,0.00,,OVC,0.06,128.00,VWS V14.01,2013-12-09 17:35:00,
2013-12-09 11:40:00,-0.5,-6.0,29.99,West,264,10.0,18.0,77,0.00,,OVC,0.06,118.00,VWS V14.01,2013-12-09 17:40:00,
2013-12-09 11:45:00,-0.4,-5.6,29.99,West,267,14.0,17.0,78,0.00,,OVC,0.06,107.00,VWS V14.01,2013-12-09 17:45:00,
2013-12-09 11:50:00,-0.4,-5.9,29.99,West,269,10.0,17.0,77,0.00,,OVC,0.06,142.00,VWS V14.01,2013-12-09 17:50:00,
2013-12-09 11:55:00,-0.2,-5.4,29.99,WSW,241,10.0,19.0,78,0.00,,OVC,0.06,116.00,VWS V14.01,2013-12-09 17:55:00,
2013-12-09 12:00:00,-0.6,-6.3,29.99,WSW,248,9.0,21.0,76,0.00,,OVC,0.06,86.00,VWS V14.01,2013-12-09 18:00:00,
2013-12-09 12:05:00,-1.2,-6.9,29.99,West,268,7.0,16.0,76,0.00,,OVC,0.06,51.00,VWS V14.01,2013-12-09 18:05:00,
2013-12-09 12:10:00,-1.7,-7.7,29.99,West,270,8.0,23.0,75,0.00,,OVC,0.06,56.00,VWS V14.01,2013-12-09 18:10:00,
2013-12-09 12:15:00,-1.9,-7.9,29.99,WSW,251,9.0,15.0,75,0.00,,OVC,0.06,153.00,VWS V14.01,2013-12-09 18:15:00,
2013-12-09 12:20:00,-1.9,-8.1,29.99,WSW,250,8.0,18.0,74,0.00,,OVC,0.06,62.00,VWS V14.01,2013-12-09 18:20:00,
2013-12-09 12:25:00,-2.2,-8.2,30.00,West,266,11.0,18.0,75,0.00,,OVC,0.06,77.00,VWS V14.01,2013-12-09 18:25:00,
2013-12-09 12:30:00,-2.2,-8.2,30.00,West,263,5.0,16.0,75,0.00,,OVC,0.06,63.00,VWS V14.01,2013-12-09 18:30:00,
2013-12-09 12:35:00,-2.3,-8.0,30.00,WSW,246,10.0,17.0,76,0.00,,OVC,0.06,65.00,VWS V14.01,2013-12-09 18:35:00,
2013-12-09 12:40:00,-2.2,-7.9,30.00,West,267,10.0,17.0,76,0.00,,OVC,0.06,113.00,VWS V14.01,2013-12-09 18:40:00,
2013-12-09 12:45:00,-1.9,-7.6,30.00,WNW,290,11.0,15.0,76,0.00,,OVC,0.06,185.00,VWS V14.01,2013-12-09 18:45:00,
2013-12-09 12:50:00,-1.5,-7.5,29.99,WSW,244,11.0,15.0,75,0.00,,OVC,0.06,250.00,VWS V14.01,2013-12-09 18:50:00,
2013-12-09 12:55:00,-1.3,-7.0,30.00,WSW,249,11.0,20.0,76,0.00,,OVC,0.06,202.00,VWS V14.01,2013-12-09 18:55:00,
2013-12-09 13:00:00,-1.6,-7.6,30.00,West,269,7.0,16.0,75,0.00,,OVC,0.06,209.00,VWS V14.01,2013-12-09 19:00:00,
2013-12-09 13:05:00,-1.5,-7.2,30.00,WSW,250,12.0,14.0,76,0.00,,OVC,0.06,137.00,VWS V14.01,2013-12-09 19:05:00,
2013-12-09 13:10:00,-1.6,-7.3,30.01,West,266,10.0,14.0,76,0.00,,OVC,0.06,142.00,VWS V14.01,2013-12-09 19:10:00,
2013-12-09 13:15:00,-1.8,-7.8,30.00,WSW,246,22.0,22.0,75,0.00,,OVC,0.06,234.00,VWS V14.01,2013-12-09 19:15:00,
2013-12-09 13:20:00,-2.1,-8.1,30.01,WSW,254,14.0,18.0,75,0.00,,OVC,0.06,237.00,VWS V14.01,2013-12-09 19:20:00,
2013-12-09 13:25:00,-2.1,-8.3,30.01,West,262,15.0,19.0,74,0.00,,OVC,0.06,244.00,VWS V14.01,2013-12-09 19:25:00,
2013-12-09 13:30:00,-2.2,-8.4,30.01,WSW,258,13.0,18.0,74,0.00,,OVC,0.06,88.00,VWS V14.01,2013-12-09 19:30:00,
2013-12-09 13:35:00,-2.6,-8.8,30.01,West,269,8.0,19.0,74,0.00,,OVC,0.06,58.00,VWS V14.01,2013-12-09 19:35:00,
2013-12-09 13:40:00,-3.2,-9.1,30.04,West,273,10.0,16.0,75,0.00,,OVC,0.06,141.00,VWS V15.00,2013-12-09 19:40:00,
2013-12-09 13:41:00,-2.9,-9.1,30.01,West,262,17.0,20.0,74,0.00,,OVC,0.06,267.00,VWS V14.01,2013-12-09 19:41:00,
2013-12-09 13:45:00,-3.1,-8.8,30.04,West,261,7.0,11.0,76,0.00,,OVC,0.06,199.00,VWS V15.00,2013-12-09 19:45:00,
2013-12-09 13:46:00,-2.7,-8.9,30.01,West,259,12.0,18.0,74,0.00,,OVC,0.06,267.00,VWS V14.01,2013-12-09 19:46:00,
2013-12-09 13:50:00,-3.0,-8.7,30.04,West,270,4.0,14.0,76,0.00,,OVC,0.06,188.00,VWS V15.00,2013-12-09 19:50:00,
2013-12-09 13:51:00,-2.8,-9.0,30.02,West,269,15.0,21.0,74,0.00,,OVC,0.06,190.00,VWS V14.01,2013-12-09 19:51:00,
2013-12-09 13:55:00,-3.0,-8.7,30.05,West,276,4.0,11.0,76,0.00,,OVC,0.06,186.00,VWS V15.00,2013-12-09 19:55:00,
2013-12-09 13:56:00,-3.0,-9.2,30.02,West,267,9.0,17.0,74,0.00,,OVC,0.06,179.00,VWS V14.01,2013-12-09 19:56:00,
2013-12-09 14:00:00,-3.1,-8.8,30.05,West,269,11.0,20.0,76,0.00,,OVC,0.06,116.00,VWS V15.00,2013-12-09 20:00:00,
2013-12-09 14:01:00,-2.7,-8.6,30.03,WNW,293,15.0,15.0,75,0.00,,OVC,0.06,91.00,VWS V14.01,2013-12-09 20:01:00,
2013-12-09 14:05:00,-3.4,-9.3,30.05,West,273,11.0,18.0,75,0.00,,OVC,0.06,151.00,VWS V15.00,2013-12-09 20:05:00,
2013-12-09 14:06:00,-2.8,-8.7,30.03,WSW,245,12.0,21.0,75,0.00,,OVC,0.06,69.00,VWS V14.01,2013-12-09 20:06:00,
2013-12-09 14:10:00,-3.6,-9.5,30.05,WSW,252,16.0,19.0,75,0.00,,OVC,0.06,139.00,VWS V15.00,2013-12-09 20:10:00,
2013-12-09 14:11:00,-3.0,-8.9,30.03,West,270,9.0,17.0,75,0.00,,OVC,0.06,132.00,VWS V14.01,2013-12-09 20:11:00,
2013-12-09 14:15:00,-3.6,-9.8,30.06,WSW,243,6.0,20.0,74,0.00,,OVC,0.06,132.00,VWS V15.00,2013-12-09 20:15:00,
2013-12-09 14:16:00,-3.1,-9.0,30.03,WNW,285,13.0,20.0,75,0.00,,OVC,0.06,74.00,VWS V14.01,2013-12-09 20:16:00,
2013-12-09 14:20:00,-3.5,-9.1,30.06,West,272,7.0,8.0,76,0.00,,OVC,0.06,156.00,VWS V15.00,2013-12-09 20:20:00,
2013-12-09 14:21:00,-3.1,-8.8,30.03,West,268,10.0,14.0,76,0.00,,OVC,0.06,109.00,VWS V14.01,2013-12-09 20:21:00,
2013-12-09 14:25:00,-3.5,-9.1,30.06,West,269,11.0,12.0,76,0.00,,OVC,0.06,171.00,VWS V15.00,2013-12-09 20:25:00,
2013-12-09 14:26:00,-3.1,-9.0,30.03,West,270,15.0,16.0,75,0.00,,OVC,0.06,95.00,VWS V14.01,2013-12-09 20:26:00,
2013-12-09 14:30:00,-3.5,-9.1,30.07,WSW,246,10.0,14.0,76,0.00,,OVC,0.06,155.00,VWS V15.00,2013-12-09 20:30:00,
2013-12-09 14:31:00,-3.1,-8.8,30.03,West,265,6.0,16.0,76,0.00,,OVC,0.06,163.00,VWS V14.01,2013-12-09 20:31:00,
2013-12-09 14:35:00,-3.8,-9.7,30.07,WNW,288,15.0,16.0,75,0.00,,OVC,0.06,39.00,VWS V15.00,2013-12-09 20:35:00,
2013-12-09 14:36:00,-2.8,-8.2,30.04,WSW,244,10.0,12.0,77,0.00,,OVC,0.06,118.00,VWS V14.01,2013-12-09 20:36:00,
2013-12-09 14:40:00,-4.0,-9.9,30.07,WSW,251,10.0,18.0,75,0.00,,OVC,0.06,100.00,VWS V15.00,2013-12-09 20:40:00,
2013-12-09 14:41:00,-3.2,-9.1,30.04,West,273,10.0,16.0,75,0.00,,OVC,0.06,141.00,VWS V14.01,2013-12-09 20:41:00,
2013-12-09 14:45:00,-4.1,-10.0,30.07,West,259,7.0,10.0,75,0.00,,OVC,0.06,76.00,VWS V15.00,2013-12-09 20:45:00,
2013-12-09 14:46:00,-3.1,-8.8,30.04,West,261,7.0,11.0,76,0.00,,OVC,0.06,199.00,VWS V14.01,2013-12-09 20:46:00,
2013-12-09 14:50:00,-4.2,-10.1,30.08,West,269,5.0,10.0,75,0.00,,OVC,0.06,56.00,VWS V15.00,2013-12-09 20:50:00,
2013-12-09 14:51:00,-3.0,-8.7,30.04,SW,234,6.0,6.0,76,0.00,,OVC,0.06,188.00,VWS V14.01,2013-12-09 20:51:00,
2013-12-09 14:56:00,-3.0,-8.7,30.05,West,276,4.0,11.0,76,0.00,,OVC,0.06,186.00,VWS V14.01,2013-12-09 20:56:00,
2013-12-09 15:01:00,-3.1,-8.8,30.05,West,271,9.0,11.0,76,0.00,,OVC,0.06,116.00,VWS V14.01,2013-12-09 21:01:00,
2013-12-09 15:05:00,-4.5,-9.9,30.08,WSW,247,7.0,11.0,77,0.00,,OVC,0.06,9.00,VWS V15.00,2013-12-09 21:05:00,
2013-12-09 15:06:00,-3.4,-9.3,30.05,WSW,251,10.0,11.0,75,0.00,,OVC,0.06,151.00,VWS V14.01,2013-12-09 21:06:00,
2013-12-09 15:12:00,-3.6,-9.5,30.05,West,275,20.0,20.0,75,0.00,,OVC,0.06,127.00,VWS V14.01,2013-12-09 21:12:00,
2013-12-09 15:15:00,-4.7,-10.1,30.09,WSW,245,5.0,8.0,77,0.00,,OVC,0.06,5.00,VWS V15.00,2013-12-09 21:15:00,
2013-12-09 15:17:00,-3.6,-9.8,30.06,West,262,5.0,6.0,74,0.00,,OVC,0.06,132.00,VWS V14.01,2013-12-09 21:17:00,
2013-12-09 15:20:00,-4.8,-9.9,30.09,West,263,6.0,12.0,78,0.00,,OVC,0.06,0.00,VWS V15.00,2013-12-09 21:20:00,
2013-12-09 15:22:00,-3.5,-9.1,30.06,WSW,251,5.0,7.0,76,0.00,,OVC,0.06,156.00,VWS V14.01,2013-12-09 21:22:00,
2013-12-09 15:25:00,-4.9,-10.0,30.09,WSW,250,4.0,11.0,78,0.00,,OVC,0.06,0.00,VWS V15.00,2013-12-09 21:25:00,
2013-12-09 15:27:00,-3.5,-9.1,30.06,West,267,11.0,11.0,76,0.00,,OVC,0.06,174.00,VWS V14.01,2013-12-09 21:27:00,
2013-12-09 15:30:00,-5.0,-10.4,30.10,WSW,255,7.0,12.0,77,0.00,,OVC,0.06,0.00,VWS V15.00,2013-12-09 21:30:00,
2013-12-09 15:32:00,-3.5,-9.1,30.07,West,259,15.0,15.0,76,0.00,,OVC,0.06,155.00,VWS V14.01,2013-12-09 21:32:00,
2013-12-09 15:35:00,-5.0,-10.1,30.09,West,265,7.0,9.0,78,0.00,,OVC,0.06,0.00,VWS V15.00,2013-12-09 21:35:00,
2013-12-09 15:37:00,-3.8,-9.7,30.07,WSW,257,14.0,18.0,75,0.00,,OVC,0.06,39.00,VWS V14.01,2013-12-09 21:37:00,
2013-12-09 15:40:00,-5.2,-10.3,30.10,WSW,248,8.0,11.0,78,0.00,,OVC,0.06,0.00,VWS V15.00,2013-12-09 21:40:00,
2013-12-09 15:42:00,-4.0,-9.9,30.07,WSW,240,7.0,10.0,75,0.00,,OVC,0.06,104.00,VWS V14.01,2013-12-09 21:42:00,
2013-12-09 15:45:00,-5.2,-10.3,30.09,West,263,5.0,11.0,78,0.00,,OVC,0.06,0.00,VWS V15.00,2013-12-09 21:45:00,
2013-12-09 15:47:00,-4.2,-10.1,30.07,WSW,257,5.0,7.0,75,0.00,,OVC,0.06,76.00,VWS V14.01,2013-12-09 21:47:00,
2013-12-09 15:50:00,-5.2,-10.3,30.10,West,260,7.0,9.0,78,0.00,,OVC,0.06,0.00,VWS V15.00,2013-12-09 21:50:00,
2013-12-09 15:52:00,-4.3,-10.2,30.08,West,267,7.0,7.0,75,0.00,,OVC,0.06,53.00,VWS V14.01,2013-12-09 21:52:00,
2013-12-09 15:55:00,-5.3,-10.4,30.10,WSW,256,5.0,7.0,78,0.00,,OVC,0.06,0.00,VWS V15.00,2013-12-09 21:55:00,
2013-12-09 15:57:00,-4.4,-10.0,30.08,WSW,258,7.0,7.0,76,0.00,,OVC,0.06,25.00,VWS V14.01,2013-12-09 21:57:00,
2013-12-09 16:00:00,-5.4,-10.5,30.10,WSW,248,4.0,8.0,78,0.00,,OVC,0.06,0.00,VWS V15.00,2013-12-09 22:00:00,
2013-12-09 16:02:00,-4.4,-10.0,30.08,WSW,255,7.0,8.0,76,0.00,,OVC,0.06,12.00,VWS V14.01,2013-12-09 22:02:00,
2013-12-09 16:05:00,-5.5,-10.6,30.11,WSW,240,5.0,9.0,78,0.00,,OVC,0.06,0.00,VWS V15.00,2013-12-09 22:05:00,
2013-12-09 16:07:00,-4.5,-9.9,30.08,West,268,5.0,7.0,77,0.00,,OVC,0.06,9.00,VWS V14.01,2013-12-09 22:07:00,
2013-12-09 16:10:00,-5.6,-10.7,30.11,WSW,250,6.0,10.0,78,0.00,,OVC,0.06,0.00,VWS V15.00,2013-12-09 22:10:00,
2013-12-09 16:12:00,-4.6,-10.0,30.09,WSW,242,6.0,6.0,77,0.00,,OVC,0.06,7.00,VWS V14.01,2013-12-09 22:12:00,
2013-12-09 16:15:00,-5.7,-10.8,30.11,West,263,8.0,10.0,78,0.00,,OVC,0.06,0.00,VWS V15.00,2013-12-09 22:15:00,
2013-12-09 16:17:00,-4.7,-10.1,30.09,WSW,247,4.0,5.0,77,0.00,,OVC,0.06,5.00,VWS V14.01,2013-12-09 22:17:00,
2013-12-09 16:20:00,-5.8,-10.9,30.11,WSW,242,8.0,10.0,78,0.00,,OVC,0.06,0.00,VWS V15.00,2013-12-09 22:20:00,
2013-12-09 16:22:00,-4.8,-9.9,30.09,WSW,250,7.0,10.0,78,0.00,,OVC,0.06,0.00,VWS V14.01,2013-12-09 22:22:00,
2013-12-09 16:25:00,-5.8,-10.9,30.11,WSW,248,10.0,11.0,78,0.00,,OVC,0.06,0.00,VWS V15.00,2013-12-09 22:25:00,
2013-12-09 16:27:00,-4.9,-10.0,30.09,West,259,7.0,8.0,78,0.00,,OVC,0.06,0.00,VWS V14.01,2013-12-09 22:27:00,
2013-12-09 16:30:00,-5.8,-10.9,30.11,WSW,251,6.0,11.0,78,0.00,,OVC,0.06,0.00,VWS V15.00,2013-12-09 22:30:00,
2013-12-09 16:32:00,-4.9,-10.2,30.10,West,263,6.0,7.0,77,0.00,,OVC,0.06,0.00,VWS V14.01,2013-12-09 22:32:00,
2013-12-09 16:35:00,-5.9,-11.0,30.11,WSW,252,9.0,16.0,78,0.00,,OVC,0.06,0.00,VWS V15.00,2013-12-09 22:35:00,
2013-12-09 16:37:00,-5.1,-10.2,30.09,West,269,6.0,10.0,78,0.00,,OVC,0.06,0.00,VWS V14.01,2013-12-09 22:37:00,
2013-12-09 16:40:00,-5.9,-11.0,30.11,WSW,240,7.0,10.0,78,0.00,,OVC,0.06,0.00,VWS V15.00,2013-12-09 22:40:00,
2013-12-09 16:42:00,-5.2,-10.3,30.10,SW,232,6.0,8.0,78,0.00,,OVC,0.06,0.00,VWS V14.01,2013-12-09 22:42:00,
2013-12-09 16:45:00,-6.0,-11.1,30.11,West,263,7.0,9.0,78,0.00,,OVC,0.06,0.00,VWS V15.00,2013-12-09 22:45:00,
2013-12-09 16:47:00,-5.2,-10.3,30.10,West,264,8.0,8.0,78,0.00,,OVC,0.06,0.00,VWS V14.01,2013-12-09 22:47:00,
2013-12-09 16:50:00,-6.1,-11.2,30.12,WSW,250,8.0,10.0,78,0.00,,OVC,0.06,0.00,VWS V15.00,2013-12-09 22:50:00,
2013-12-09 16:52:00,-5.3,-10.4,30.10,WSW,255,5.0,7.0,78,0.00,,OVC,0.06,0.00,VWS V14.01,2013-12-09 22:52:00,
2013-12-09 16:55:00,-6.1,-11.2,30.12,West,265,7.0,10.0,78,0.00,,OVC,0.06,0.00,VWS V15.00,2013-12-09 22:55:00,
2013-12-09 16:57:00,-5.4,-10.5,30.10,WSW,249,5.0,6.0,78,0.00,,OVC,0.06,0.00,VWS V14.01,2013-12-09 22:57:00,
2013-12-09 17:00:00,-6.2,-11.3,30.12,WSW,243,7.0,8.0,78,0.00,,OVC,0.06,0.00,VWS V15.00,2013-12-09 23:00:00,
2013-12-09 17:02:00,-5.4,-10.5,30.10,WSW,247,4.0,8.0,78,0.00,,OVC,0.06,0.00,VWS V14.01,2013-12-09 23:02:00,
2013-12-09 17:05:00,-6.2,-11.3,30.13,WSW,250,7.0,10.0,78,0.00,,OVC,0.06,0.00,VWS V15.00,2013-12-09 23:05:00,
2013-12-09 17:07:00,-5.5,-10.6,30.11,WSW,250,6.0,7.0,78,0.00,,OVC,0.06,0.00,VWS V14.01,2013-12-09 23:07:00,
2013-12-09 17:10:00,-6.2,-11.3,30.12,WSW,250,5.0,9.0,78,0.00,,OVC,0.06,0.00,VWS V15.00,2013-12-09 23:10:00,
2013-12-09 17:12:00,-5.7,-10.8,30.11,WSW,251,7.0,8.0,78,0.00,,OVC,0.06,0.00,VWS V14.01,2013-12-09 23:12:00,
2013-12-09 17:15:00,-6.3,-11.4,30.12,WSW,244,6.0,9.0,78,0.00,,OVC,0.06,0.00,VWS V15.00,2013-12-09 23:15:00,
2013-12-09 17:17:00,-5.7,-10.8,30.11,WSW,247,6.0,10.0,78,0.00,,OVC,0.06,0.00,VWS V14.01,2013-12-09 23:17:00,
2013-12-09 17:20:00,-6.3,-11.4,30.12,SW,235,6.0,9.0,78,0.00,,OVC,0.06,0.00,VWS V15.00,2013-12-09 23:20:00,
2013-12-09 17:22:00,-5.8,-10.9,30.11,WSW,242,7.0,9.0,78,0.00,,OVC,0.06,0.00,VWS V14.01,2013-12-09 23:22:00,
2013-12-09 17:25:00,-6.4,-11.4,30.12,WSW,248,6.0,7.0,78,0.00,,OVC,0.06,0.00,VWS V15.00,2013-12-09 23:25:00,
2013-12-09 17:27:00,-5.8,-10.9,30.11,West,259,10.0,10.0,78,0.00,,OVC,0.06,0.00,VWS V14.01,2013-12-09 23:27:00,
2013-12-09 17:30:00,-6.5,-11.6,30.12,WSW,253,4.0,8.0,78,0.00,,OVC,0.06,0.00,VWS V15.00,2013-12-09 23:30:00,
2013-12-09 17:32:00,-5.8,-10.9,30.11,WSW,255,10.0,16.0,78,0.00,,OVC,0.06,0.00,VWS V14.01,2013-12-09 23:32:00,
2013-12-09 17:35:00,-6.5,-11.6,30.12,WSW,244,6.0,8.0,78,0.00,,OVC,0.06,0.00,VWS V15.00,2013-12-09 23:35:00,
2013-12-09 17:37:00,-5.9,-11.0,30.11,WSW,240,7.0,9.0,78,0.00,,OVC,0.06,0.00,VWS V14.01,2013-12-09 23:37:00,
2013-12-09 17:40:00,-6.6,-11.6,30.13,WSW,244,6.0,8.0,78,0.00,,OVC,0.06,0.00,VWS V15.00,2013-12-09 23:40:00,
2013-12-09 17:43:00,-5.9,-11.0,30.11,West,273,9.0,9.0,78,0.00,,OVC,0.06,0.00,VWS V14.01,2013-12-09 23:43:00,
2013-12-09 17:45:00,-6.7,-11.7,30.13,WSW,248,6.0,8.0,78,0.00,,OVC,0.06,0.00,VWS V15.00,2013-12-09 23:45:00,
2013-12-09 17:48:00,-6.1,-11.2,30.11,WSW,252,7.0,8.0,78,0.00,,OVC,0.06,0.00,VWS V14.01,2013-12-09 23:48:00,
2013-12-09 17:50:00,-6.8,-11.8,30.12,WSW,244,6.0,6.0,78,0.00,,OVC,0.06,0.00,VWS V15.00,2013-12-09 23:50:00,
2013-12-09 17:53:00,-6.1,-11.2,30.12,WSW,244,6.0,10.0,78,0.00,,OVC,0.06,0.00,VWS V14.01,2013-12-09 23:53:00,
2013-12-09 17:55:00,-6.9,-11.9,30.13,WSW,246,4.0,7.0,78,0.00,,OVC,0.06,0.00,VWS V15.00,2013-12-09 23:55:00,
2013-12-09 17:58:00,-6.1,-11.2,30.12,WSW,246,7.0,8.0,78,0.00,,OVC,0.06,0.00,VWS V14.01,2013-12-09 23:58:00,
2013-12-09 18:00:00,-7.0,-11.8,30.13,WSW,252,5.0,7.0,79,0.00,,OVC,0.06,0.00,VWS V15.00,2013-12-10 00:00:00,
2013-12-09 18:03:00,-6.1,-11.2,30.13,West,267,7.0,10.0,78,0.00,,OVC,0.06,0.00,VWS V14.01,2013-12-10 00:03:00,
2013-12-09 18:05:00,-7.0,-12.0,30.12,WSW,254,3.0,6.0,78,0.00,,OVC,0.06,0.00,VWS V15.00,2013-12-10 00:05:00,
2013-12-09 18:08:00,-6.2,-11.3,30.13,WSW,247,5.0,9.0,78,0.00,,OVC,0.06,0.00,VWS V14.01,2013-12-10 00:08:00,
2013-12-09 18:10:00,-7.1,-11.9,30.12,WSW,251,5.0,8.0,79,0.00,,OVC,0.06,0.00,VWS V15.00,2013-12-10 00:10:00,
2013-12-09 18:13:00,-6.2,-11.3,30.12,WSW,244,7.0,9.0,78,0.00,,OVC,0.06,0.00,VWS V14.01,2013-12-10 00:13:00,
2013-12-09 18:15:00,-7.2,-12.0,30.12,WSW,255,5.0,6.0,79,0.00,,OVC,0.06,0.00,VWS V15.00,2013-12-10 00:15:00,
2013-12-09 18:18:00,-6.2,-11.3,30.12,WSW,253,6.0,8.0,78,0.00,,OVC,0.06,0.00,VWS V14.01,2013-12-10 00:18:00,
2013-12-09 18:20:00,-7.2,-12.0,30.12,WSW,240,4.0,5.0,79,0.00,,OVC,0.06,0.00,VWS V15.00,2013-12-10 00:20:00,
2013-12-09 18:23:00,-6.3,-11.4,30.12,West,259,6.0,7.0,78,0.00,,OVC,0.06,0.00,VWS V14.01,2013-12-10 00:23:00,
2013-12-09 18:25:00,-7.3,-12.1,30.12,WSW,242,3.0,5.0,79,0.00,,OVC,0.06,0.00,VWS V15.00,2013-12-10 00:25:00,
2013-12-09 18:28:00,-6.4,-11.4,30.12,WSW,248,8.0,8.0,78,0.00,,OVC,0.06,0.00,VWS V14.01,2013-12-10 00:28:00,
2013-12-09 18:30:00,-7.4,-12.2,30.12,WSW,242,4.0,5.0,79,0.00,,OVC,0.06,0.00,VWS V15.00,2013-12-10 00:30:00,
2013-12-09 18:33:00,-6.5,-11.6,30.12,West,261,6.0,8.0,78,0.00,,OVC,0.06,0.00,VWS V14.01,2013-12-10 00:33:00,
2013-12-09 18:35:00,-7.5,-12.3,30.12,WSW,237,1.0,5.0,79,0.00,,OVC,0.06,0.00,VWS V15.00,2013-12-10 00:35:00,
2013-12-09 18:38:00,-6.6,-11.6,30.13,SW,235,8.0,8.0,78,0.00,,OVC,0.06,0.00,VWS V14.01,2013-12-10 00:38:00,
2013-12-09 18:40:00,-7.7,-12.7,30.11,SW,229,1.0,3.0,78,0.00,,OVC,0.06,0.00,VWS V15.00,2013-12-10 00:40:00,
2013-12-09 18:43:00,-6.6,-11.6,30.13,WSW,252,7.0,7.0,78,0.00,,OVC,0.06,0.00,VWS V14.01,2013-12-10 00:43:00,
2013-12-09 18:45:00,-7.8,-12.8,30.11,SW,234,4.0,4.0,78,0.00,,OVC,0.06,0.00,VWS V15.00,2013-12-10 00:45:00,
2013-12-09 18:48:00,-6.7,-11.8,30.13,WSW,244,4.0,6.0,78,0.00,,OVC,0.06,0.00,VWS V14.01,2013-12-10 00:48:00,
2013-12-09 18:50:00,-7.9,-12.9,30.11,WSW,242,3.0,5.0,78,0.00,,OVC,0.06,0.00,VWS V15.00,2013-12-10 00:50:00,
2013-12-09 18:53:00,-6.8,-11.8,30.13,WSW,239,5.0,6.0,78,0.00,,OVC,0.06,0.00,VWS V14.01,2013-12-10 00:53:00,
2013-12-09 18:55:00,-8.1,-12.9,30.11,WSW,240,2.0,4.0,79,0.00,,OVC,0.06,0.00,VWS V15.00,2013-12-10 00:55:00,
2013-12-09 18:58:00,-6.9,-11.9,30.12,WSW,243,7.0,7.0,78,0.00,,OVC,0.06,0.00,VWS V14.01,2013-12-10 00:58:00,
2013-12-09 19:00:00,-8.2,-12.9,30.11,WSW,248,3.0,4.0,79,0.00,,OVC,0.06,0.00,VWS V15.00,2013-12-10 01:00:00,
2013-12-09 19:03:00,-7.0,-12.0,30.12,WSW,252,5.0,6.0,78,0.00,,OVC,0.06,0.00,VWS V14.01,2013-12-10 01:03:00,
2013-12-09 19:05:00,-8.3,-13.1,30.11,WSW,248,1.0,3.0,79,0.00,,OVC,0.06,0.00,VWS V15.00,2013-12-10 01:05:00,
2013-12-09 19:08:00,-7.1,-12.1,30.12,WSW,247,6.0,6.0,78,0.00,,OVC,0.06,0.00,VWS V14.01,2013-12-10 01:08:00,
2013-12-09 19:10:00,-8.5,-13.5,30.11,WSW,242,5.0,5.0,78,0.00,,OVC,0.06,0.00,VWS V15.00,2013-12-10 01:10:00,
2013-12-09 19:13:00,-7.1,-11.9,30.12,WSW,258,4.0,6.0,79,0.00,,OVC,0.06,0.00,VWS V14.01,2013-12-10 01:13:00,
2013-12-09 19:15:00,-8.6,-13.3,30.11,WSW,248,4.0,5.0,79,0.00,,OVC,0.06,0.00,VWS V15.00,2013-12-10 01:15:00,
2013-12-09 19:18:00,-7.2,-12.0,30.12,WSW,255,3.0,5.0,79,0.00,,OVC,0.06,0.00,VWS V14.01,2013-12-10 01:18:00,
2013-12-09 19:20:00,-8.6,-13.3,30.11,WSW,250,3.0,5.0,79,0.00,,OVC,0.06,0.00,VWS V15.00,2013-12-10 01:20:00,
2013-12-09 19:23:00,-7.3,-12.1,30.12,WSW,245,3.0,4.0,79,0.00,,OVC,0.06,0.00,VWS V14.01,2013-12-10 01:23:00,
2013-12-09 19:25:00,-8.7,-13.4,30.11,WSW,246,2.0,4.0,79,0.00,,OVC,0.06,0.00,VWS V15.00,2013-12-10 01:25:00,
2013-12-09 19:28:00,-7.3,-12.1,30.12,WSW,242,4.0,5.0,79,0.00,,OVC,0.06,0.00,VWS V14.01,2013-12-10 01:28:00,
2013-12-09 19:30:00,-8.8,-13.5,30.11,WSW,238,1.0,4.0,79,0.00,,OVC,0.06,0.00,VWS V15.00,2013-12-10 01:30:00,
2013-12-09 19:33:00,-7.5,-12.3,30.11,SW,233,2.0,5.0,79,0.00,,OVC,0.06,0.00,VWS V14.01,2013-12-10 01:33:00,
2013-12-09 19:35:00,-8.9,-13.6,30.11,SW,233,0.0,3.0,79,0.00,,OVC,0.06,0.00,VWS V15.00,2013-12-10 01:35:00,
2013-12-09 19:38:00,-7.6,-12.6,30.11,SW,236,2.0,3.0,78,0.00,,OVC,0.06,0.00,VWS V14.01,2013-12-10 01:38:00,
2013-12-09 19:40:00,-8.9,-13.6,30.11,SW,233,0.0,1.0,79,0.00,,OVC,0.06,0.00,VWS V15.00,2013-12-10 01:40:00,
2013-12-09 19:43:00,-7.7,-12.7,30.11,SW,229,2.0,3.0,78,0.00,,OVC,0.06,0.00,VWS V14.01,2013-12-10 01:43:00,
2013-12-09 19:45:00,-9.0,-13.7,30.11,SW,233,0.0,2.0,79,0.00,,OVC,0.06,0.00,VWS V15.00,2013-12-10 01:45:00,
2013-12-09 19:48:00,-7.9,-12.9,30.11,WSW,246,4.0,5.0,78,0.00,,OVC,0.06,0.00,VWS V14.01,2013-12-10 01:48:00,
2013-12-09 19:50:00,-9.1,-13.8,30.11,SW,233,1.0,1.0,79,0.00,,OVC,0.06,0.00,VWS V15.00,2013-12-10 01:50:00,
2013-12-09 19:53:00,-8.0,-12.8,30.11,WSW,240,2.0,4.0,79,0.00,,OVC,0.06,0.00,VWS V14.01,2013-12-10 01:53:00,
2013-12-09 19:55:00,-9.1,-13.8,30.11,WSW,240,1.0,3.0,79,0.00,,OVC,0.06,0.00,VWS V15.00,2013-12-10 01:55:00,
2013-12-09 19:58:00,-8.1,-12.9,30.11,WSW,241,2.0,4.0,79,0.00,,OVC,0.06,0.00,VWS V14.01,2013-12-10 01:58:00,
2013-12-09 20:00:00,-9.2,-13.9,30.11,WSW,240,0.0,2.0,79,0.00,,OVC,0.06,0.00,VWS V15.00,2013-12-10 02:00:00,
2013-12-09 20:04:00,-8.2,-12.9,30.11,WSW,248,2.0,3.0,79,0.00,,OVC,0.06,0.00,VWS V14.01,2013-12-10 02:04:00,
2013-12-09 20:05:00,-9.3,-14.0,30.11,WSW,238,0.0,2.0,79,0.00,,OVC,0.06,0.00,VWS V15.00,2013-12-10 02:05:00,
2013-12-09 20:09:00,-8.4,-13.1,30.11,WSW,249,3.0,3.0,79,0.00,,OVC,0.06,0.00,VWS V14.01,2013-12-10 02:09:00,
2013-12-09 20:10:00,-9.4,-14.1,30.11,SW,221,2.0,3.0,79,0.00,,OVC,0.06,0.00,VWS V15.00,2013-12-10 02:10:00,
2013-12-09 20:14:00,-8.5,-13.2,30.11,WSW,252,5.0,5.0,79,0.00,,OVC,0.06,0.00,VWS V14.01,2013-12-10 02:14:00,
2013-12-09 20:15:00,-9.5,-14.2,30.11,SW,229,1.0,3.0,79,0.00,,OVC,0.06,0.00,VWS V15.00,2013-12-10 02:15:00,
2013-12-09 20:19:00,-8.6,-13.3,30.11,WSW,257,4.0,5.0,79,0.00,,OVC,0.06,0.00,VWS V14.01,2013-12-10 02:19:00,
2013-12-09 20:20:00,-9.6,-14.3,30.11,SW,229,1.0,2.0,79,0.00,,OVC,0.06,0.00,VWS V15.00,2013-12-10 02:20:00,
2013-12-09 20:24:00,-8.6,-13.3,30.11,WSW,245,3.0,4.0,79,0.00,,OVC,0.06,0.00,VWS V14.01,2013-12-10 02:24:00,
2013-12-09 20:25:00,-9.7,-14.4,30.11,WSW,239,0.0,3.0,79,0.00,,OVC,0.06,0.00,VWS V15.00,2013-12-10 02:25:00,
2013-12-09 20:29:00,-8.8,-13.5,30.11,WSW,238,3.0,4.0,79,0.00,,OVC,0.06,0.00,VWS V14.01,2013-12-10 02:29:00,
2013-12-09 20:30:00,-9.7,-14.4,30.10,WSW,238,0.0,2.0,79,0.00,,OVC,0.06,0.00,VWS V15.00,2013-12-10 02:30:00,
2013-12-09 20:34:00,-8.8,-13.5,30.10,SW,233,3.0,3.0,79,0.00,,OVC,0.06,0.00,VWS V14.01,2013-12-10 02:34:00,
2013-12-09 20:35:00,-9.8,-14.5,30.10,WSW,238,0.0,1.0,79,0.00,,OVC,0.06,0.00,VWS V15.00,2013-12-10 02:35:00,
2013-12-09 20:39:00,-8.9,-13.6,30.11,SW,233,0.0,0.0,79,0.00,,OVC,0.06,0.00,VWS V14.01,2013-12-10 02:39:00,
2013-12-09 20:40:00,-9.9,-14.6,30.10,SW,219,3.0,5.0,79,0.00,,OVC,0.06,0.00,VWS V15.00,2013-12-10 02:40:00,
2013-12-09 20:44:00,-9.0,-13.7,30.11,SW,233,0.0,2.0,79,0.00,,OVC,0.06,0.00,VWS V14.01,2013-12-10 02:44:00,
2013-12-09 20:45:00,-10.0,-14.7,30.09,WSW,243,1.0,4.0,79,0.00,,OVC,0.06,0.00,VWS V15.00,2013-12-10 02:45:00,
2013-12-09 20:49:00,-9.0,-13.7,30.11,SW,233,1.0,1.0,79,0.00,,OVC,0.06,0.00,VWS V14.01,2013-12-10 02:49:00,
2013-12-09 20:50:00,-10.0,-14.7,30.09,WSW,240,0.0,2.0,79,0.00,,OVC,0.06,0.00,VWS V15.00,2013-12-10 02:50:00,
2013-12-09 20:54:00,-9.1,-13.8,30.11,WSW,238,2.0,3.0,79,0.00,,OVC,0.06,0.00,VWS V14.01,2013-12-10 02:54:00,
2013-12-09 20:55:00,-10.1,-14.8,30.09,SW,231,1.0,5.0,79,0.00,,OVC,0.06,0.00,VWS V15.00,2013-12-10 02:55:00,
2013-12-09 20:59:00,-9.2,-13.9,30.11,WSW,240,0.0,2.0,79,0.00,,OVC,0.06,0.00,VWS V14.01,2013-12-10 02:59:00,
2013-12-09 21:00:00,-10.1,-14.6,30.09,SW,229,4.0,4.0,80,0.00,,OVC,0.06,0.00,VWS V15.00,2013-12-10 03:00:00,
2013-12-09 21:04:00,-9.3,-14.0,30.11,WSW,238,1.0,2.0,79,0.00,,OVC,0.06,0.00,VWS V14.01,2013-12-10 03:04:00,
2013-12-09 21:05:00,-10.1,-14.6,30.09,SW,215,3.0,4.0,80,0.00,,OVC,0.06,0.00,VWS V15.00,2013-12-10 03:05:00,
2013-12-09 21:09:00,-9.4,-14.1,30.10,SW,234,0.0,2.0,79,0.00,,OVC,0.06,0.00,VWS V14.01,2013-12-10 03:09:00,
2013-12-09 21:10:00,-10.2,-14.9,30.08,SW,228,1.0,4.0,79,0.00,,OVC,0.06,0.00,VWS V15.00,2013-12-10 03:10:00,
2013-12-09 21:14:00,-9.5,-14.2,30.11,SW,229,2.0,3.0,79,0.00,,OVC,0.06,0.00,VWS V14.01,2013-12-10 03:14:00,
2013-12-09 21:15:00,-10.3,-15.0,30.08,SSW,211,0.0,4.0,79,0.00,,OVC,0.06,0.00,VWS V15.00,2013-12-10 03:15:00,
2013-12-09 21:19:00,-9.5,-14.2,30.11,SW,229,1.0,1.0,79,0.00,,OVC,0.06,0.00,VWS V14.01,2013-12-10 03:19:00,
2013-12-09 21:20:00,-10.5,-15.2,30.08,SSW,207,0.0,4.0,79,0.00,,OVC,0.06,0.00,VWS V15.00,2013-12-10 03:20:00,
2013-12-09 21:24:00,-9.6,-14.3,30.10,WSW,238,0.0,3.0,79,0.00,,OVC,0.06,0.00,VWS V14.01,2013-12-10 03:24:00,
2013-12-09 21:25:00,-10.6,-15.3,30.08,SSW,198,2.0,5.0,79,0.00,,OVC,0.06,0.00,VWS V15.00,2013-12-10 03:25:00,
2013-12-09 21:29:00,-9.7,-14.4,30.11,WSW,238,0.0,2.0,79,0.00,,OVC,0.06,0.00,VWS V14.01,2013-12-10 03:29:00,
2013-12-09 21:30:00,-10.7,-15.4,30.08,SSW,208,0.0,4.0,79,0.00,,OVC,0.06,0.00,VWS V15.00,2013-12-10 03:30:00,
2013-12-09 21:34:00,-9.8,-14.5,30.10,WSW,238,0.0,1.0,79,0.00,,OVC,0.06,0.00,VWS V14.01,2013-12-10 03:34:00,
2013-12-09 21:35:00,-10.8,-15.5,30.08,South,174,1.0,4.0,79,0.00,,OVC,0.06,0.00,VWS V15.00,2013-12-10 03:35:00,
2013-12-09 21:39:00,-9.8,-14.5,30.10,WSW,241,3.0,5.0,79,0.00,,OVC,0.06,0.00,VWS V14.01,2013-12-10 03:39:00,
2013-12-09 21:40:00,-10.9,-15.6,30.07,South,186,0.0,3.0,79,0.00,,OVC,0.06,0.00,VWS V15.00,2013-12-10 03:40:00,
2013-12-09 21:44:00,-9.9,-14.6,30.09,SW,224,0.0,4.0,79,0.00,,OVC,0.06,0.00,VWS V14.01,2013-12-10 03:44:00,
2013-12-09 21:45:00,-11.0,-15.7,30.08,South,191,0.0,3.0,79,0.00,,OVC,0.06,0.00,VWS V15.00,2013-12-10 03:45:00,
2013-12-09 21:49:00,-10.0,-14.7,30.09,WSW,240,2.0,2.0,79,0.00,,OVC,0.06,0.00,VWS V14.01,2013-12-10 03:49:00,
2013-12-09 21:50:00,-11.1,-15.8,30.08,SSW,211,5.0,5.0,79,0.00,,OVC,0.06,0.00,VWS V15.00,2013-12-10 03:50:00,
2013-12-09 21:54:00,-10.1,-14.8,30.09,WSW,238,2.0,5.0,79,0.00,,OVC,0.06,0.00,VWS V14.01,2013-12-10 03:54:00,
2013-12-09 21:55:00,-11.1,-15.8,30.08,SSW,203,0.0,5.0,79,0.00,,OVC,0.06,0.00,VWS V15.00,2013-12-10 03:55:00,
2013-12-09 21:59:00,-10.1,-14.6,30.09,SW,227,2.0,3.0,80,0.00,,OVC,0.06,0.00,VWS V14.01,2013-12-10 03:59:00,
2013-12-09 22:00:00,-11.0,-15.7,30.08,SW,227,0.0,3.0,79,0.00,,OVC,0.06,0.00,VWS V15.00,2013-12-10 04:00:00,
2013-12-09 22:05:00,-10.1,-14.6,30.09,SW,215,0.0,4.0,80,0.00,,OVC,0.06,0.00,VWS V14.01,2013-12-10 04:05:00,
2013-12-09 22:10:00,-10.1,-14.8,30.08,SW,228,0.0,4.0,79,0.00,,OVC,0.06,0.00,VWS V14.01,2013-12-10 04:10:00,
2013-12-09 22:15:00,-10.3,-15.0,30.08,SSW,213,2.0,4.0,79,0.00,,OVC,0.06,0.00,VWS V14.01,2013-12-10 04:15:00,
2013-12-09 22:20:00,-10.4,-15.1,30.08,SSW,205,2.0,4.0,79,0.00,,OVC,0.06,0.00,VWS V14.01,2013-12-10 04:20:00,
2013-12-09 22:25:00,-10.6,-15.3,30.08,SSW,212,2.0,4.0,79,0.00,,OVC,0.06,0.00,VWS V14.01,2013-12-10 04:25:00,
2013-12-09 22:30:00,-10.7,-15.4,30.08,SSW,209,0.0,4.0,79,0.00,,OVC,0.06,0.00,VWS V14.01,2013-12-10 04:30:00,
2013-12-09 22:35:00,-10.7,-15.4,30.08,South,176,0.0,4.0,79,0.00,,OVC,0.06,0.00,VWS V14.01,2013-12-10 04:35:00,
2013-12-09 22:40:00,-10.8,-15.5,30.07,South,177,2.0,2.0,79,0.00,,OVC,0.06,0.00,VWS V14.01,2013-12-10 04:40:00,
2013-12-09 22:45:00,-10.9,-15.6,30.08,South,191,0.0,3.0,79,0.00,,OVC,0.06,0.00,VWS V14.01,2013-12-10 04:45:00,
2013-12-09 22:50:00,-11.1,-15.8,30.08,SSW,209,1.0,4.0,79,0.00,,OVC,0.06,0.00,VWS V14.01,2013-12-10 04:50:00,
2013-12-09 22:55:00,-11.1,-15.8,30.08,WSW,237,3.0,5.0,79,0.00,,OVC,0.06,0.00,VWS V14.01,2013-12-10 04:55:00,
2013-12-09 23:00:00,-11.0,-15.7,30.08,SSW,210,2.0,3.0,79,0.00,,OVC,0.06,0.00,VWS V14.01,2013-12-10 05:00:00,
2013-12-09 23:01:00,-11.0,-15.7,30.08,SW,227,0.0,3.0,79,0.00,,OVC,0.06,0.00,VWS V14.01,2013-12-10 05:01:00,
2013-12-09 23:02:00,-11.0,-15.7,30.08,SW,227,0.0,0.0,79,0.00,,OVC,0.06,0.00,VWS V14.01,2013-12-10 05:02:00,
2013-12-09 23:04:00,-11.0,-15.7,30.08,SSW,211,1.0,3.0,79,0.00,,OVC,0.06,0.00,VWS V14.01,2013-12-10 05:04:00,
2013-12-09 23:05:00,-11.3,-15.7,30.06,SW,215,2.0,3.0,80,0.00,,OVC,0.00,0.00,VWS V15.00,2013-12-10 05:05:00,
2013-12-09 23:07:00,-11.0,-15.4,30.08,SSW,209,1.0,3.0,80,0.00,,OVC,0.06,0.00,VWS V14.01,2013-12-10 05:07:00,
2013-12-09 23:08:00,-11.0,-15.4,30.08,SSW,208,0.0,3.0,80,0.00,,OVC,0.06,0.00,VWS V14.01,2013-12-10 05:08:00,
2013-12-09 23:10:00,-11.2,-15.6,30.07,SSW,205,0.0,4.0,80,0.00,,OVC,0.00,0.00,VWS V15.00,2013-12-10 05:10:00,
2013-12-09 23:13:00,-10.9,-15.3,30.08,SW,222,1.0,4.0,80,0.00,,OVC,0.06,0.00,VWS V14.01,2013-12-10 05:13:00,
2013-12-09 23:15:00,-11.2,-15.6,30.06,SSW,196,0.0,6.0,80,0.00,,OVC,0.00,0.00,VWS V15.00,2013-12-10 05:15:00,
2013-12-09 23:18:00,-10.9,-15.3,30.08,South,188,0.0,2.0,80,0.00,,OVC,0.06,0.00,VWS V14.01,2013-12-10 05:18:00,
2013-12-09 23:20:00,-11.1,-15.5,30.06,SW,223,0.0,3.0,80,0.00,,OVC,0.00,0.00,VWS V15.00,2013-12-10 05:20:00,
2013-12-09 23:23:00,-11.0,-15.4,30.08,South,181,0.0,4.0,80,0.00,,OVC,0.06,0.00,VWS V14.01,2013-12-10 05:23:00,
2013-12-09 23:25:00,-10.9,-15.3,30.06,SSW,204,3.0,3.0,80,0.00,,OVC,0.00,0.00,VWS V15.00,2013-12-10 05:25:00,
2013-12-09 23:28:00,-11.1,-15.8,30.08,SSW,203,1.0,1.0,79,0.00,,OVC,0.06,0.00,VWS V14.01,2013-12-10 05:28:00,
2013-12-09 23:30:00,-10.8,-15.2,30.06,SW,224,0.0,4.0,80,0.00,,OVC,0.00,0.00,VWS V15.00,2013-12-10 05:30:00,
2013-12-09 23:33:00,-11.1,-15.8,30.08,SSW,212,0.0,0.0,79,0.00,,OVC,0.06,0.00,VWS V14.01,2013-12-10 05:33:00,
2013-12-09 23:35:00,-10.7,-15.1,30.06,South,181,0.0,5.0,80,0.00,,OVC,0.00,0.00,VWS V15.00,2013-12-10 05:35:00,
2013-12-09 23:38:00,-11.2,-15.9,30.07,SW,228,1.0,3.0,79,0.00,,OVC,0.06,0.00,VWS V14.01,2013-12-10 05:38:00,
2013-12-09 23:40:00,-10.7,-15.1,30.05,SSW,200,1.0,5.0,80,0.00,,OVC,0.00,0.00,VWS V15.00,2013-12-10 05:40:00,
2013-12-09 23:43:00,-11.2,-15.9,30.07,SSW,211,0.0,1.0,79,0.00,,OVC,0.06,0.00,VWS V14.01,2013-12-10 05:43:00,
2013-12-09 23:45:00,-10.6,-15.1,30.04,SW,214,2.0,5.0,80,0.00,,OVC,0.00,0.00,VWS V15.00,2013-12-10 05:45:00,
2013-12-09 23:48:00,-11.2,-15.9,30.07,SW,217,1.0,1.0,79,0.00,,OVC,0.06,0.00,VWS V14.01,2013-12-10 05:48:00,
2013-12-09 23:50:00,-10.6,-15.1,30.04,SSE,160,4.0,7.0,80,0.00,,OVC,0.00,0.00,VWS V15.00,2013-12-10 05:50:00,
2013-12-09 23:53:00,-11.3,-16.0,30.07,SSW,212,0.0,2.0,79,0.00,,OVC,0.06,0.00,VWS V14.01,2013-12-10 05:53:00,
2013-12-09 23:55:00,-10.5,-14.9,30.04,South,190,4.0,6.0,80,0.00,,OVC,0.00,0.00,VWS V15.00,2013-12-10 05:55:00,
2013-12-09 23:58:00,-11.3,-16.0,30.07,SSW,202,0.0,2.0,79,0.00,,OVC,0.06,0.00,VWS V14.01,2013-12-10 05:58:00,